User: anonymous   Login
Location: Étouvelles
(49.5207°N, 3.5808°E)
Time: 04:55:20
(UTC+00:00)
Language:

Cosmos 1140 Rocket - Orbit

View from above orbital plane
View from above orbital plane
View from above satellite
View from above satellite

Ground track
Ground track

The orbit data is extracted from the following two-line orbital elements,

1 11574U 79089B   23151.76024764  .00000321  00000-0  10766-3 0  9998
2 11574  74.0675 164.2357 0016963 237.6433 122.3081 14.41154535290326
Epoch (UTC): 31 May 2023 18:14:45
Eccentricity: 0.0016963
inclination: 74.0675°
perigee height: 742 km
apogee height: 767 km
right ascension of ascending node: 164.2357°
argument of perigee: 237.6433°
revolutions per day: 14.41154535
mean anomaly at epoch: 122.3081°
orbit number at epoch: 29032

The dashed part of the orbit path shows where the satellite is in the earth's shadow,  

DLR